Date String (YYYY-MM-DD hh:mm:ss) UTC,Instrument flags,Ambient pressure (hPa),Sample flow (lpm),Bypass flow (lpm),Sample temperature (°C),Ambient temperature (°C),ASC tube jacket temperature (°C),LED temperature (°C),Box temperature (°C),Sample RH (%),Span deviation,Mass concentration (μg/m³),Mass concentration (μg/m³),Mass concentration (μg/m³)
DateTimeUTC,F1_M11,P_M11,Q1_M11,Q2_M11,T1_M11,T2_M11,T3_M11,T4_M11,T5_M11,U1_M11,ZSPAN_M11,X0_M11,X2_M11,X1_M11
2023-01-31 10:00:00,,0826.2,5.01,0.00,22.2,20.7,00.0,31.2,23.7,04.8,0000.5,0013.68,0009.90,0009.35
2023-01-31 10:01:00,,0826.2,4.99,0.00,22.3,21.7,00.0,31.1,24.0,04.8,0000.4,0013.24,0009.65,0009.11
2023-01-31 10:02:00,,0826.2,4.98,0.00,22.4,22.5,00.0,31.1,24.3,04.6,0000.5,0013.21,0009.64,0009.11
2023-01-31 10:03:00,,0826.2,5.00,0.00,22.5,23.0,00.0,31.1,24.5,04.6,0000.5,0013.50,0009.83,0009.28
2023-01-31 10:04:00,,0826.1,4.99,0.00,22.5,22.6,00.0,31.2,24.4,04.5,0000.6,0013.93,0010.14,0009.56
2023-01-31 10:05:00,,0826.0,5.00,0.00,22.5,21.7,00.0,31.2,24.2,04.6,0000.8,0014.54,0010.38,0009.78
2023-01-31 10:06:00,,0826.0,5.01,0.00,22.4,21.0,00.0,31.2,23.9,04.7,0000.8,0014.69,0010.46,0009.84
2023-01-31 10:07:00,,0826.0,5.02,0.00,22.3,20.6,00.0,31.2,23.8,04.7,0000.8,0014.53,0010.32,0009.70
2023-01-31 10:08:00,,0826.0,4.99,0.00,22.2,20.2,00.0,31.2,23.7,04.6,0000.5,0014.45,0010.28,0009.68
2023-01-31 10:09:00,,0826.0,5.00,0.00,22.2,20.6,00.0,31.2,23.7,04.5,0000.5,0014.46,0010.32,0009.73
2023-01-31 10:10:00,,0826.0,5.01,0.00,22.2,21.6,00.0,31.1,24.0,04.5,0000.4,0014.63,0010.45,0009.86
2023-01-31 10:11:00,,0825.9,5.01,0.00,22.3,22.4,00.0,31.1,24.2,04.6,0000.4,0014.85,0010.62,0010.02
2023-01-31 10:12:00,,0825.9,5.01,0.00,22.5,23.1,00.0,31.1,24.4,04.6,0000.5,0015.15,0010.84,0010.22
2023-01-31 10:13:00,,0825.8,5.00,0.00,22.5,22.7,00.0,31.2,24.4,04.6,0000.4,0015.20,0010.85,0010.20
2023-01-31 10:14:00,,0825.7,5.00,0.00,22.5,22.0,00.0,31.2,24.2,04.6,0000.4,0015.09,0010.81,0010.17
2023-01-31 10:15:00,,0825.7,5.02,0.00,22.4,21.3,00.0,31.2,24.0,04.5,0000.4,0015.02,0010.80,0010.17
2023-01-31 10:16:00,,0825.7,5.01,0.00,22.3,20.8,00.0,31.2,23.8,04.6,0000.0,0015.28,0010.77,0010.16
2023-01-31 10:17:00,,0825.7,4.99,0.00,22.2,20.4,00.0,31.2,23.7,04.7,-000.2,0015.11,0010.70,0010.11
2023-01-31 10:18:00,,0825.7,5.00,0.00,22.1,20.1,00.0,31.2,23.6,04.8,-000.2,0015.12,0010.70,0010.07
2023-01-31 10:19:00,,0825.7,5.00,0.00,22.1,21.0,00.0,31.1,23.8,04.8,-000.0,0015.05,0010.53,0009.87
2023-01-31 10:20:00,,0825.7,4.99,0.00,22.3,22.0,00.0,31.1,24.1,04.8,-000.2,0014.87,0010.35,0009.68
2023-01-31 10:21:00,,0825.7,5.00,0.00,22.4,22.7,00.0,31.1,24.3,04.7,-000.2,0014.70,0010.21,0009.54
2023-01-31 10:22:00,,0825.7,5.00,0.00,22.5,23.0,00.0,31.1,24.4,04.7,-000.2,0014.58,0010.10,0009.44
2023-01-31 10:23:00,,0825.7,5.01,0.00,22.5,22.3,00.0,31.2,24.3,04.7,-000.0,0014.43,0009.93,0009.29
2023-01-31 10:24:00,,0825.7,5.03,0.00,22.4,21.6,00.0,31.2,24.1,04.8,0000.1,0014.11,0009.74,0009.16
2023-01-31 10:25:00,,0825.6,5.00,0.00,22.3,21.0,00.0,31.2,23.9,04.8,-000.2,0013.94,0009.54,0008.96
2023-01-31 10:26:00,,0825.5,5.02,0.00,22.3,20.5,00.0,31.2,23.8,04.8,-000.0,0013.68,0009.32,0008.76
2023-01-31 10:27:00,,0825.5,5.02,0.00,22.2,20.3,00.0,31.2,23.7,04.9,0000.2,0013.05,0009.20,0008.63
2023-01-31 10:28:00,,0825.6,4.99,0.00,22.2,21.1,00.0,31.1,23.8,04.9,0000.5,0012.92,0009.14,0008.58
2023-01-31 10:29:00,,0825.5,5.01,0.00,22.3,22.1,00.0,31.1,24.1,04.9,0000.2,0012.86,0009.08,0008.56
2023-01-31 10:30:00,,0825.5,4.99,0.00,22.4,22.8,00.0,31.1,24.3,04.8,0000.1,0012.68,0009.03,0008.56
2023-01-31 10:31:00,,0825.5,5.00,0.00,22.5,22.6,00.0,31.2,24.3,04.8,0000.3,0012.64,0009.01,0008.55
2023-01-31 10:32:00,,0825.4,4.99,0.00,22.4,21.7,00.0,31.2,24.1,04.8,0000.6,0012.56,0008.97,0008.52
2023-01-31 10:33:00,,0825.4,5.00,0.00,22.3,20.9,00.0,31.2,23.9,04.9,0000.6,0012.49,0008.94,0008.48
2023-01-31 10:34:00,,0825.4,5.02,0.00,22.2,20.4,00.0,31.2,23.7,04.9,0000.5,0012.39,0008.93,0008.46
2023-01-31 10:35:00,,0825.5,4.99,0.00,22.1,20.0,00.0,31.2,23.6,04.9,0000.5,0012.49,0008.96,0008.47
2023-01-31 10:36:00,,0825.5,4.98,0.00,22.1,20.9,00.0,31.1,23.7,04.9,0000.8,0012.70,0008.98,0008.50
2023-01-31 10:37:00,,0825.5,5.01,0.00,22.2,22.0,00.0,31.1,24.0,04.9,0000.7,0012.89,0009.00,0008.53
2023-01-31 10:38:00,,0825.5,4.99,0.00,22.4,22.8,00.0,31.1,24.3,04.8,0000.8,0012.89,0009.04,0008.55
2023-01-31 10:39:00,,0825.4,4.99,0.00,22.5,23.2,00.0,31.1,24.5,04.8,0000.7,0013.12,0009.10,0008.60
2023-01-31 10:40:00,,0825.4,5.00,0.00,22.5,22.5,00.0,31.2,24.3,04.8,0000.8,0013.38,0009.17,0008.66
2023-01-31 10:41:00,,0825.4,5.01,0.00,22.5,21.8,00.0,31.2,24.2,04.8,0000.8,0013.54,0009.26,0008.73
2023-01-31 10:42:00,,0825.3,4.98,0.00,22.4,21.3,00.0,31.2,24.0,04.9,0000.9,0013.57,0009.30,0008.78
2023-01-31 10:43:00,,0825.4,5.00,0.00,22.3,20.8,00.0,31.2,23.9,04.9,0000.8,0013.65,0009.35,0008.84
2023-01-31 10:44:00,,0825.3,4.99,0.00,22.2,20.5,00.0,31.2,23.8,04.8,0000.8,0013.86,0009.41,0008.90
2023-01-31 10:45:00,,0825.3,5.01,0.00,22.2,20.5,00.0,31.2,23.8,04.8,0000.9,0014.00,0009.45,0008.95
2023-01-31 10:46:00,,0825.2,5.01,0.00,22.3,21.5,00.0,31.1,24.0,04.8,0001.3,0013.95,0009.45,0008.97
2023-01-31 10:47:00,,0825.3,5.01,0.00,22.4,22.5,00.0,31.1,24.3,04.8,0001.1,0013.83,0009.50,0009.00
2023-01-31 10:48:00,,0825.3,4.97,0.00,22.5,23.0,00.0,31.1,24.4,04.8,0001.1,0013.74,0009.55,0009.04
2023-01-31 10:49:00,,0825.3,5.02,0.00,22.5,22.5,00.0,31.2,24.4,04.8,0001.0,0013.86,0009.60,0009.09
2023-01-31 10:50:00,,0825.4,4.99,0.00,22.5,21.9,00.0,31.2,24.2,04.7,0001.2,0013.79,0009.64,0009.12
2023-01-31 10:51:00,,0825.4,5.01,0.00,22.4,21.3,00.0,31.2,24.0,04.7,0001.4,0013.58,0009.63,0009.12
2023-01-31 10:52:00,,0825.3,5.01,0.00,22.3,20.9,00.0,31.2,23.9,04.7,0001.2,0013.53,0009.59,0009.09
2023-01-31 10:53:00,,0825.3,4.97,0.00,22.3,20.5,00.0,31.2,23.8,04.7,0000.9,0013.56,0009.60,0009.07
2023-01-31 10:54:00,,0825.3,5.04,0.00,22.2,20.6,00.0,31.2,23.8,04.7,0001.0,0013.58,0009.57,0009.04
2023-01-31 10:55:00,,0825.3,4.96,0.00,22.3,21.6,00.0,31.1,24.0,04.7,0000.7,0013.50,0009.56,0009.01
2023-01-31 10:56:00,,0825.4,5.01,0.00,22.4,22.5,00.0,31.1,24.3,04.6,0000.6,0013.40,0009.55,0009.00
2023-01-31 10:57:00,,0825.3,4.99,0.00,22.5,23.0,00.0,31.2,24.5,04.6,0000.4,0013.45,0009.55,0008.98
2023-01-31 10:58:00,,0825.3,5.01,0.00,22.5,22.4,00.0,31.2,24.4,04.6,0000.4,0013.37,0009.51,0008.96
2023-01-31 10:59:00,,0825.2,4.98,0.00,22.5,21.8,00.0,31.3,24.2,04.6,0000.4,0013.21,0009.45,0008.91
